CZ-4 DEB, 35326

Orbit data source: Space-Track

CZ-4 DEB, 35326 is space debris in SSO originally from a launch on Thu, 14 Oct 1999 UTC launched from the Taiyaun Space Center, China (TSC). Debris objects in space refer to the collection of defunct objects orbiting the Earth. Examples of debris include non-operational satellites, rocket bodies, and fragments generated from explosions, collisions, or faulty payload assembly.

Loading next visibility...
Identifier
35326, 1999-057SE
Orbit
SSO
Country
Flag of CNCN / PRC
Related business
Manufacturer
Unknown
Mission
Spacecraft
Bus & Motor
Unknown
Mass
Unknown
Launch date (UTC)
1999-10-14 (26 years ago)
Launch vehicle
Unknown
Launch site
Taiyaun Space Center, China (TSC)
Object type
Payload
Rocket body
Debris
Shape & HBR
Unknown shape, 0.1 m
Radar Cross Section
Small (<0.1 m²)

Expand to show TLE details & history
Last TLE update: 3 weeks ago

TLE from 3 weeks ago
0 CZ-4 DEB
1 35326U 99057SE  26018.90882114 -.00000015  00000-0  12787-4 0  9995
2 35326  98.4491 253.0870 0232964  17.6594 343.2502 14.00267251632872
Epoch: 2026-01-18T21:48Z
TLE epoch observation values (Epoch: 2026-01-18T21:48:42.146Z)
Latitude
-0.00003°
Longitude
167.59875°
Altitude
733.872 km
Speed
7.571 km/s
True Right ascension
16h 52m 20s
True Declination
0° 00' 00"
Sunlit
Object was in daylight at epoch
Visualization orbit readout
Latitude
Unknown
Longitude
Unknown
Altitude
Unknown
Speed
Unknown
Apparent Right ascension
Unknown
Apparent Declination
Unknown
Sunlit
N/A
Visualization observer readout
Local Sidereal Time
10:44:54
Azimuth
Unknown
Elevation
Unknown
Doppler factor
Unknown
Orbital elements
Apogee altitude
1,059.363 km
Perigee altitude
720.718 km
Semi-major axis
7,268.177 km
Eccentricity
0.0233
Inclination
98.4491°
RAAN
253.087°
Arg. of periapsis
17.6594°
True anomaly
342.45883°
Mean anomaly
343.2502°
Eccentric anomaly
342.85676°
Mean motion
3.50272 °/min
Orbital period
102.78 mins
BSTAR
0.000012787
Loading maneuver chart data...
Computing Atmospheric mass density...
Loading historical data...
Loading historical data...
Loading historical data...
Loading historical data...
Loading historical data...
Loading historical data...
Loading historical data...

Documentation

Showing up to 5 results
|